Hourly Weather Cesis

Today, 12 June, Saturday

Time Temperature Precipitation Wind Pressure Humidity
00:00 +15°C° 0 mm 1 mps 751 mmHg 75%
01:00 +14°C° 0 mm 1 mps 750 mmHg 77%
02:00 +14°C° 0 mm 1 mps 750 mmHg 79%
03:00 +14°C° 0 mm 1 mps 750 mmHg 80%
04:00 +14°C° 0 mm 1 mps 749 mmHg 81%
05:00 +14°C° 0 mm 1 mps 749 mmHg 82%
06:00 +16°C° 0 mm 2 mps 749 mmHg 76%
07:00 +18°C° 0 mm 2 mps 748 mmHg 70%
08:00 +20°C° 0 mm 2 mps 748 mmHg 64%
09:00 +21°C° 0.1 mm 3 mps 748 mmHg 60%
10:00 +22°C° 0.1 mm 3 mps 747 mmHg 57%
11:00 +23°C° 0.1 mm 4 mps 747 mmHg 54%
12:00 +23°C° 0.1 mm 4 mps 746 mmHg 51%
13:00 +23°C° 0.1 mm 4 mps 746 mmHg 48%
14:00 +23°C° 0.1 mm 4 mps 745 mmHg 45%
15:00 +21°C° 0.4 mm 4 mps 745 mmHg 58%
16:00 +20°C° 0.4 mm 4 mps 744 mmHg 72%
17:00 +18°C° 0.4 mm 3 mps 744 mmHg 86%
18:00 +17°C° 0.8 mm 3 mps 744 mmHg 90%
19:00 +16°C° 0.8 mm 3 mps 743 mmHg 94%
20:00 +14°C° 0.8 mm 3 mps 743 mmHg 97%
21:00 +13°C° 0.7 mm 3 mps 743 mmHg 98%
22:00 +14°C° 0.7 mm 2 mps 743 mmHg 98%
23:00 +13°C° 0.7 mm 2 mps 743 mmHg 98%

Tomorrow, 13 June, Sunday

Time Temperature Precipitation Wind Pressure Humidity
00:00 +13°C° 0.1 mm 2 mps 743 mmHg 98%
01:00 +13°C° 0.1 mm 1 mps 743 mmHg 99%
02:00 +13°C° 0.1 mm 1 mps 743 mmHg 99%
03:00 +13°C° 0 mm 1 mps 743 mmHg 98%
04:00 +13°C° 0 mm 1 mps 743 mmHg 98%
05:00 +13°C° 0 mm 1 mps 743 mmHg 98%
06:00 +13°C° 0.1 mm 1 mps 743 mmHg 95%
07:00 +14°C° 0.1 mm 1 mps 743 mmHg 92%
08:00 +15°C° 0.1 mm 2 mps 744 mmHg 89%
09:00 +16°C° 0.3 mm 2 mps 744 mmHg 86%
10:00 +16°C° 0.3 mm 3 mps 745 mmHg 83%
11:00 +17°C° 0.3 mm 3 mps 745 mmHg 80%
12:00 +17°C° 0.6 mm 3 mps 745 mmHg 81%
13:00 +17°C° 0.6 mm 4 mps 746 mmHg 82%
14:00 +17°C° 0.6 mm 4 mps 746 mmHg 83%
15:00 +17°C° 0.5 mm 4 mps 747 mmHg 81%
16:00 +16°C° 0.5 mm 5 mps 748 mmHg 79%
17:00 +16°C° 0.5 mm 5 mps 748 mmHg 76%
18:00 +15°C° 0 mm 5 mps 749 mmHg 73%
19:00 +14°C° 0 mm 5 mps 749 mmHg 70%
20:00 +13°C° 0 mm 5 mps 750 mmHg 68%
21:00 +12°C° 0 mm 4 mps 750 mmHg 71%
22:00 +11°C° 0 mm 4 mps 751 mmHg 75%
23:00 +10°C° 0 mm 3 mps 752 mmHg 79%

Day after tomorrow, 14 June, Monday

Time Temperature Precipitation Wind Pressure Humidity
00:00 +9°C° 0 mm 3 mps 752 mmHg 81%
01:00 +9°C° 0 mm 3 mps 753 mmHg 83%
02:00 +8°C° 0 mm 3 mps 753 mmHg 85%
03:00 +8°C° 0 mm 3 mps 753 mmHg 85%
04:00 +9°C° 0 mm 3 mps 754 mmHg 84%
05:00 +9°C° 0 mm 3 mps 754 mmHg 84%
06:00 +11°C° 0 mm 3 mps 755 mmHg 73%
07:00 +13°C° 0 mm 3 mps 755 mmHg 63%
08:00 +14°C° 0 mm 3 mps 755 mmHg 53%
09:00 +17°C° 0 mm 3 mps 755 mmHg 48%
10:00 +18°C° 0 mm 2 mps 755 mmHg 43%
11:00 +19°C° 0 mm 2 mps 755 mmHg 38%
12:00 +20°C° 0 mm 2 mps 755 mmHg 36%
13:00 +21°C° 0 mm 2 mps 755 mmHg 34%
14:00 +23°C° 0 mm 1 mps 755 mmHg 33%
15:00 +23°C° 0 mm 1 mps 755 mmHg 34%
16:00 +22°C° 0 mm 1 mps 755 mmHg 35%
17:00 +21°C° 0 mm 2 mps 755 mmHg 36%
18:00 +20°C° 0 mm 2 mps 754 mmHg 45%
19:00 +19°C° 0 mm 1 mps 754 mmHg 55%
20:00 +16°C° 0 mm 1 mps 754 mmHg 64%
21:00 +15°C° 0 mm 2 mps 754 mmHg 66%
22:00 +14°C° 0 mm 2 mps 754 mmHg 67%
23:00 +13°C° 0 mm 2 mps 754 mmHg 69%

15 June, Tuesday

Time Temperature Precipitation Wind Pressure Humidity
00:00 +11°C° 0 mm 3 mps 753 mmHg 74%
01:00 +11°C° 0 mm 3 mps 753 mmHg 79%
02:00 +11°C° 0 mm 3 mps 753 mmHg 84%
03:00 +12°C° 0 mm 3 mps 753 mmHg 82%
04:00 +12°C° 0 mm 4 mps 752 mmHg 80%
05:00 +12°C° 0 mm 4 mps 752 mmHg 78%
06:00 +13°C° 0 mm 4 mps 752 mmHg 78%
07:00 +14°C° 0 mm 4 mps 752 mmHg 77%
08:00 +15°C° 0 mm 4 mps 752 mmHg 77%
09:00 +17°C° 0 mm 4 mps 752 mmHg 80%
10:00 +17°C° 0 mm 4 mps 752 mmHg 83%
11:00 +17°C° 0 mm 4 mps 752 mmHg 85%
12:00 +18°C° 0.2 mm 4 mps 752 mmHg 78%
13:00 +19°C° 0.2 mm 4 mps 752 mmHg 71%
14:00 +20°C° 0.2 mm 4 mps 752 mmHg 64%
15:00 +20°C° 0 mm 4 mps 752 mmHg 58%
16:00 +20°C° 0 mm 4 mps 752 mmHg 51%
17:00 +20°C° 0 mm 4 mps 752 mmHg 45%
18:00 +18°C° 0 mm 4 mps 752 mmHg 52%
19:00 +16°C° 0 mm 3 mps 753 mmHg 60%
20:00 +14°C° 0 mm 2 mps 753 mmHg 68%
21:00 +13°C° 0 mm 2 mps 753 mmHg 76%
22:00 +10°C° 0 mm 2 mps 753 mmHg 83%
23:00 +8°C° 0 mm 2 mps 754 mmHg 91%

16 June, Wednesday

Time Temperature Precipitation Wind Pressure Humidity
00:00 +9°C° 0 mm 1 mps 754 mmHg 93%
01:00 +9°C° 0 mm 1 mps 754 mmHg 94%
02:00 +9°C° 0 mm 1 mps 755 mmHg 96%
03:00 +10°C° 0 mm 1 mps 755 mmHg 94%
04:00 +10°C° 0 mm 1 mps 755 mmHg 92%
05:00 +11°C° 0 mm 1 mps 755 mmHg 90%
06:00 +13°C° 0 mm 1 mps 756 mmHg 80%
07:00 +15°C° 0 mm 1 mps 756 mmHg 69%
08:00 +18°C° 0 mm 1 mps 756 mmHg 59%
09:00 +20°C° 0 mm 1 mps 756 mmHg 52%
10:00 +21°C° 0 mm 1 mps 756 mmHg 45%
11:00 +23°C° 0 mm 1 mps 756 mmHg 39%
12:00 +23°C° 0 mm 2 mps 757 mmHg 37%
13:00 +24°C° 0 mm 2 mps 757 mmHg 35%
14:00 +24°C° 0 mm 2 mps 757 mmHg 34%
15:00 +24°C° 0 mm 2 mps 757 mmHg 35%
16:00 +24°C° 0 mm 2 mps 757 mmHg 35%
17:00 +24°C° 0 mm 2 mps 757 mmHg 36%
18:00 +21°C° 0 mm 2 mps 757 mmHg 46%
19:00 +20°C° 0 mm 1 mps 757 mmHg 55%
20:00 +18°C° 0 mm 1 mps 757 mmHg 64%
21:00 +16°C° 0 mm 1 mps 757 mmHg 66%
22:00 +15°C° 0 mm 1 mps 758 mmHg 69%
23:00 +12°C° 0 mm 0 mps 758 mmHg 71%

17 June, Thursday

Time Temperature Precipitation Wind Pressure Humidity
00:00 +13°C° 0 mm 1 mps 758 mmHg 73%
01:00 +13°C° 0 mm 1 mps 759 mmHg 76%
02:00 +13°C° 0 mm 1 mps 759 mmHg 78%
03:00 +13°C° 0 mm 1 mps 759 mmHg 80%
04:00 +13°C° 0 mm 1 mps 759 mmHg 83%
05:00 +14°C° 0 mm 1 mps 759 mmHg 85%
06:00 +16°C° 0 mm 2 mps 759 mmHg 78%
07:00 +18°C° 0 mm 2 mps 760 mmHg 70%
08:00 +20°C° 0 mm 2 mps 760 mmHg 63%
09:00 +21°C° 0 mm 2 mps 760 mmHg 58%
10:00 +23°C° 0 mm 2 mps 760 mmHg 53%
11:00 +25°C° 0 mm 2 mps 760 mmHg 47%
12:00 +25°C° 0 mm 3 mps 760 mmHg 45%
13:00 +26°C° 0 mm 3 mps 760 mmHg 43%
14:00 +27°C° 0 mm 3 mps 760 mmHg 41%
15:00 +27°C° 0 mm 3 mps 759 mmHg 42%
16:00 +27°C° 0 mm 2 mps 759 mmHg 43%
17:00 +26°C° 0 mm 2 mps 759 mmHg 44%
18:00 +25°C° 0 mm 2 mps 759 mmHg 54%
19:00 +23°C° 0 mm 2 mps 759 mmHg 64%
20:00 +21°C° 0 mm 1 mps 759 mmHg 73%
21:00 +20°C° 0 mm 1 mps 760 mmHg 78%
22:00 +18°C° 0 mm 1 mps 760 mmHg 83%
23:00 +16°C° 0 mm 1 mps 760 mmHg 88%
Show more

We Need Your Consent

Meteoprog and our Service Providers may store and access personal data such as cookies, device identifiers or other similar technologies on your device and process such data to personalise content and ads, as well as provide social media features and to analyse the traffic.

  • Store and/or access information on your device

    Cookies, device identifiers or other information can be stored or accessed on your device for the purposes indicated above.

  • Personalised ads and content, ad and content measurement, audience insights, and products development

    Ads and content can be personalised based on a profile. More data can be added to better personalise ads and content. Ad and content performance can be measured. Insights about the audience who saw the ads and content can be derived. Such data can be used to develop or improve user’s experience, systems and software.

By clicking ‘I Agree’ you will allow the use of indicated cookies, device identifiers, web beacons or other similar technologies. Your settings can be changed in the browser on your device.

For certain purposes, legitimate interests may be relied on, rather than consent. You can read more about this in our Privacy and Cookie Policy.